Location: Anumalkud?ru
(16.4847°N, 80.6636°E)
Time: 23:36:33
(UTC+00:00)

SJ-11-01 - Pass Details

Date: 11 April 2026
Orbit: 673 x 690 km, 98.0° (Epoch: 9 May)

Event Time Altitude Azimuth Distance (km) Brightness Sun altitude
Rises 23:07:25 0° 8° (N) 3,033 7.9 -18.9°
Reaches altitude 10° 23:09:40 10° 5° (N) 2,114 7.0 -18.4°
Maximum altitude 23:14:15 69° 283° (WNW) 722 4.1 -17.3°
Drops below altitude 10° 23:18:49 10° 200° (SSW) 2,102 6.5 -16.2°
Enters shadow 23:18:58 - 199° (SSW) 2,162 6.5 -16.2°
